Terug naar catalogus

FREGAT DEB

ActiefUNKNOWN
NORAD 45843·DEBRIS·🇷🇺 Russia

Gelanceerd Jul 18, 2011 vanaf Baikonur Cosmodrome

Loading…

Volgende Passages (komende 24 uur)

TLE

VersSource: Space-Track

Epoch: Sep 14, 2026, 09:09 UTC

1 45843U 11037CD  26257.38125553  .00002107  00000-0  18181-1 0  9990
2 45843  51.2297 258.0772 1702859 171.1332 192.4037 10.26762891 53818

Volg FREGAT DEB in realtime met AllMySat

Download on the App Store